This is the latest recevied weather packets stored in our database for station/object I2HLY-4. If no packets are shown the sender has not sent any weather packets the latest 10 day(s).
| Time | Temp. | Humidity | Pressure | Rain* | Wind** | Luminosity | Snow |
|---|---|---|---|---|---|---|---|
| 1777863736 | 10.56° C | 64% | 1018.6 hPa | 0 mm | - | - | - |
| 1777862852 | 10.56° C | 61% | 1018.7 hPa | 0 mm | - | - | - |
| 1777861947 | 10.56° C | 61% | 1018.7 hPa | 0 mm | - | - | - |
| 1777861043 | 10.56° C | 62% | 1018.8 hPa | 0 mm | - | - | - |
| 1777860138 | 10.56° C | 64% | 1018.8 hPa | 0 mm | - | - | - |
| 1777859232 | 11.11° C | 63% | 1018.7 hPa | 0 mm | - | - | - |
| 1777858336 | 11.11° C | 62% | 1018.9 hPa | 0 mm | - | - | - |
| 1777857445 | 11.11° C | 63% | 1019 hPa | 0 mm | - | - | - |
| 1777856538 | 11.67° C | 62% | 1019 hPa | 0 mm | - | - | - |
| 1777855632 | 11.67° C | 60% | 1019.1 hPa | 0 mm | - | - | - |
| 1777854736 | 11.67° C | 60% | 1019.2 hPa | 0 mm | - | - | - |
| 1777853850 | 11.67° C | 64% | 1019.3 hPa | 0 mm | - | - | - |
| 1777852043 | 11.67° C | 62% | 1019.5 hPa | 0 mm | - | - | - |
| 1777851134 | 11.67° C | 59% | 1019.7 hPa | 0 mm | - | - | - |
| 1777850249 | 11.67° C | 62% | 1019.7 hPa | 0 mm | - | - | - |
| 1777849343 | 11.67° C | 59% | 1019.8 hPa | 0 mm | - | - | - |
| 1777848437 | 11.67° C | 58% | 1019.8 hPa | 0 mm | - | - | - |
| 1777847550 | 11.67° C | 60% | 1019.9 hPa | 0 mm | - | - | - |
| 1777846648 | 11.67° C | 58% | 1019.9 hPa | 0 mm | - | - | - |
| 1777845742 | 11.67° C | 58% | 1019.8 hPa | 0 mm | - | - | - |
| 1777844838 | 11.67° C | 57% | 1019.9 hPa | 0 mm | - | - | - |
| 1777843932 | 11.67° C | 56% | 1020 hPa | 0 mm | - | - | - |
| 1777843043 | 11.67° C | 56% | 1019.8 hPa | 0 mm | - | - | - |
| 1777842141 | 11.67° C | 56% | 1019.9 hPa | 0 mm | - | - | - |
| 1777841234 | 11.67° C | 53% | 1019.8 hPa | 0 mm | - | - | - |
* Rain latest hour (hover to see other rain measurements)
** Current wind speed in m/s (hover to see current wind gust speed)